Showing default

SURCAL 150B, 2909

Orbit data source: Space-Track

SURCAL 150B, 2909 is a payload satellite owned by NRL (US) in LEO that was launched on Wed, 31 May 1967 UTC via a THOR SLV-2 AGENA D launch vehicle from the Air Force Western Test Range (AFWTR). Payload-class satellites include a variety of spacecraft equipped with specific instruments for various scientific and technological missions. These include communications satellites like Starlink; space stations such as the ISS; scientific satellites like the Hubble; Earth observation satellites from companies like Planet Labs, Umbra, and HawkEye 360; GPS; miniature CubeSats for education and research; and military/defense satellites.

Loading next visibility...
Identifier
2909, 1967-053J
Orbit
LEO
Country
Flag of USUS
Related business
Manufacturer
NRL
Mission
Operational Defense Calibration
Bus & Motor
SURCAL?, Unknown motor
Mass
~5 kg wet, ~5 kg dry
Launch date (UTC)
1967-05-31 (58 years ago)
Launch vehicle
THOR SLV-2 AGENA D
Launch site
Air Force Western Test Range (AFWTR)
Object type
Payload
Rocket body
Debris
Shape & HBR
Box, 0.1 m
Radar Cross Section
0.060 m², Small (<0.1 m²)

Expand to show TLE details & history
Last TLE update: 21 hours ago

TLE from 21 hours ago
0 SURCAL 150B
1 02909U 67053J   25260.24301144  .00218808  00000-0  43120-2 0  9994
2 02909  69.9125 219.1569 0005217 192.6214 167.4839 15.46243332 39864
Epoch: 2025-09-17T05:49Z
TLE epoch observation values (Epoch: 2025-09-17T05:49:56.188Z)
Latitude
-0.00005°
Longitude
135.251°
Altitude
433.663 km
Speed
7.65 km/s
True Right ascension
14h 36m 37s
True Declination
0° 00' 00"
Sunlit
Object was in daylight at epoch
Visualization orbit readout
Latitude
Unknown
Longitude
Unknown
Altitude
Unknown
Speed
Unknown
Apparent Right ascension
Unknown
Apparent Declination
Unknown
Sunlit
N/A
Visualization observer readout
Local Sidereal Time
19:56:53
Azimuth
Unknown
Elevation
Unknown
Doppler factor
Unknown
Orbital elements
Apogee altitude
429.191 km
Perigee altitude
422.092 km
Semi-major axis
6,803.778 km
Eccentricity
0.00052
Inclination
69.9125°
RAAN
219.1569°
Arg. of periapsis
192.6214°
True anomaly
167.49685°
Mean anomaly
167.4839°
Eccentric anomaly
167.49037°
Mean motion
3.86739 °/min
Orbital period
93.09 mins
BSTAR
0.004312
Loading maneuver chart data...
Computing Atmospheric mass density...
Loading historical data...
Loading historical data...
Loading historical data...
Loading historical data...
Loading historical data...
Loading historical data...
Loading historical data...

Documentation

Showing up to 5 results
|